FW9268 Weather Reports


time (UTC)temp
C
wind
direction
speed
KPH
gust
KPH
rain 1hr
cm
rain 24hr
cm
rain mn
cm
humidity
%
barometer
mb
20260503051557 10 216 4.8 11.3 0.00 0.00 0.00 52 1010.7
20260503051547 10 216 1.6 11.3 0.00 0.00 0.00 52 1017.3
20260503050054 10 219 4.8 11.3 0.00 0.00 0.00 52 1011.1
20260503050037 10 219 3.2 11.3 0.00 0.00 0.00 52 1017.7
20260503044555 10 254 4.8 11.3 0.00 0.00 0.00 51 1011.3
20260503044536 10 254 3.2 11.3 0.00 0.00 0.00 50 1017.8
20260503043052 10 194 9.7 16.1 0.00 0.00 0.00 51 1011.2
20260503043045 10 188 8.0 16.1 0.00 0.00 0.00 50 1017.7
20260503041552 10 193 8.0 16.1 0.00 0.00 0.00 51 1011.4
20260503041543 10 195 8.0 17.7 0.00 0.00 0.00 51 1017.8
20260503040050 10 209 6.4 14.5 0.00 0.00 0.00 52 1011.5
20260503040040 10 209 6.4 14.5 0.00 0.00 0.00 52 1017.9
20260503034601 10 188 6.4 11.3 0.00 0.00 0.00 51 1011.8
20260503034544 10 188 8.0 11.3 0.00 0.00 0.00 51 1018.1
20260503033054 10 192 4.8 9.7 0.00 0.00 0.00 51 1012.1
20260503033050 10 192 4.8 9.7 0.00 0.00 0.00 50 1018.3
20260503031548 10 192 6.4 11.3 0.00 0.00 0.00 52 1012.2
20260503031538 10 192 6.4 11.3 0.00 0.00 0.00 51 1018.5
20260503030044 10 194 6.4 9.7 0.00 0.00 0.00 50 1012.5
20260503030040 10 194 4.8 9.7 0.00 0.00 0.00 49 1018.8
20260503024547 10 226 6.4 9.7 0.00 0.00 0.00 47 1018.9
20260503024540 10 226 6.4 9.7 0.00 0.00 0.00 48 1012.5
20260503023045 11 239 3.2 8.0 0.00 0.00 0.00 48 1018.9
20260503023037 11 239 4.8 8.0 0.00 0.00 0.00 48 1012.7
20260503021539 11 242 3.2 6.4 0.00 0.00 0.00 48 1019.1
20260503021536 11 242 3.2 6.4 0.00 0.00 0.00 48 1012.9
20260503020035 11 243 3.2 11.3 0.00 0.00 0.00 46 1019.0
20260503014538 11 244 3.2 6.4 0.00 0.00 0.00 44 1013.0
20260503014536 11 244 3.2 6.4 0.00 0.00 0.00 44 1019.1
20260503013039 12 244 1.6 4.8 0.00 0.00 0.00 42 1019.1
20260503013034 12 244 0.0 4.8 0.00 0.00 0.00 42 1013.1
20260503011546 12 244 3.2 8.0 0.00 0.00 0.00 42 1019.2
20260503011532 12 244 3.2 6.4 0.00 0.00 0.00 42 1013.1
20260503010039 12 245 1.6 8.0 0.00 0.00 0.00 42 1019.3
20260503010035 12 245 1.6 6.4 0.00 0.00 0.00 42 1013.3
20260503004539 12 244 3.2 16.1 0.00 0.00 0.00 40 1019.5
20260503004532 12 244 1.6 11.3 0.00 0.00 0.00 41 1013.4
20260503003046 13 248 1.6 12.9 0.00 0.00 0.00 40 1013.5
20260503003039 13 247 1.6 12.9 0.00 0.00 0.00 40 1019.5
20260503001547 13 252 4.8 14.5 0.00 0.00 0.00 37 1013.6
20260503001536 13 252 4.8 22.5 0.00 0.00 0.00 37 1019.5
20260503000042 13 213 6.4 22.5 0.00 0.00 0.00 36 1019.7
20260503000027 13 213 9.7 19.3 0.00 0.00 0.00 37 1013.7
20260502234558 13 253 6.4 20.9 0.00 0.00 0.00 36 1019.8
20260502234533 13 253 4.8 19.3 0.00 0.00 0.00 37 1013.8
20260502233039 13 263 9.7 22.5 0.00 0.00 0.00 36 1019.9
20260502233027 13 263 8.0 22.5 0.00 0.00 0.00 36 1014.1
20260502231538 13 254 8.0 22.5 0.00 0.00 0.00 35 1019.9
20260502231524 13 254 9.7 22.5 0.00 0.00 0.00 35 1014.0
20260502230035 14 279 9.7 25.7 0.00 0.00 0.00 32 1019.8
20260502230032 14 279 6.4 24.1 0.00 0.00 0.00 33 1014.0
20260502224535 14 217 12.9 27.4 0.00 0.00 0.00 32 1019.9
20260502224524 14 217 14.5 27.4 0.00 0.00 0.00 32 1014.0
20260502223049 14 258 9.7 25.7 0.00 0.00 0.00 30 1020.1
20260502223021 14 235 9.7 25.7 0.00 0.00 0.00 31 1014.2
20260502221541 14 240 11.3 25.7 0.00 0.00 0.00 29 1020.1
20260502221521 14 240 9.7 25.7 0.00 0.00 0.00 28 1014.2
20260502220038 14 227 6.4 17.7 0.00 0.00 0.00 30 1020.2
20260502220022 14 227 4.8 17.7 0.00 0.00 0.00 31 1014.3
20260502214538 13 269 4.8 27.4 0.00 0.00 0.00 31 1020.5
20260502214516 13 259 4.8 27.4 0.00 0.00 0.00 31 1014.5
20260502213047 14 230 6.4 30.6 0.00 0.00 0.00 32 1020.4
20260502213022 14 230 6.4 25.7 0.00 0.00 0.00 32 1014.6
20260502211542 14 259 14.5 27.4 0.00 0.00 0.00 28 1020.5
20260502211519 14 276 14.5 24.1 0.00 0.00 0.00 28 1014.7
20260502210041 14 222 4.8 20.9 0.00 0.00 0.00 30 1020.6
20260502210014 14 221 4.8 20.9 0.00 0.00 0.00 31 1014.9
20260502204538 13 284 4.8 19.3 0.00 0.00 0.00 40 1020.8
20260502204514 13 284 4.8 19.3 0.00 0.00 0.00 33 1015.1
20260502203045 13 300 6.4 19.3 0.00 0.00 0.00 37 1021.0
20260502203011 13 300 6.4 19.3 0.00 0.00 0.00 31 1015.3
20260502201539 13 323 6.4 20.9 0.00 0.00 0.00 32 1021.4
20260502201509 13 308 3.2 19.3 0.00 0.00 0.00 32 1015.7
20260502200039 13 255 8.0 22.5 0.00 0.00 0.00 28 1021.7
20260502200006 13 257 6.4 22.5 0.00 0.00 0.00 29 1016.0
20260502194539 13 242 8.0 22.5 0.00 0.00 0.00 30 1021.9
20260502194505 13 250 9.7 22.5 0.00 0.00 0.00 31 1016.1
20260502193055 13 299 11.3 24.1 0.00 0.00 0.00 31 1022.1
20260502193003 13 323 11.3 24.1 0.00 0.00 0.00 32 1016.3
20260502191540 13 320 12.9 20.9 0.00 0.00 0.00 31 1022.2
20260502191501 13 302 12.9 20.9 0.00 0.00 0.00 32 1016.5
20260502190100 12 228 8.0 16.1 0.00 0.00 0.00 34 1016.8
20260502190043 12 239 9.7 25.7 0.00 0.00 0.00 34 1022.4
20260502184610 12 261 8.0 20.9 0.00 0.00 0.00 35 1017.0
20260502184545 12 261 9.7 20.9 0.00 0.00 0.00 34 1022.7
20260502183103 12 285 9.7 24.1 0.00 0.00 0.00 34 1017.3
20260502183040 12 341 9.7 24.1 0.00 0.00 0.00 34 1023.0
20260502181608 12 360 6.4 24.1 0.00 0.00 0.00 33 1017.5
20260502181543 12 305 6.4 24.1 0.00 0.00 0.00 31 1023.1
20260502163059 11 325 8.0 17.7 0.00 0.00 0.00 36 1024.3
20260502163049 11 355 6.4 17.7 0.00 0.00 0.00 33 1018.8
20260502161541 10 250 9.7 17.7 0.00 0.00 0.00 37 1024.4
20260502161538 11 334 8.0 17.7 0.00 0.00 0.00 38 1018.9
20260502151552 9 229 4.8 11.3 0.00 0.00 0.00 38 1024.9
20260502151522 9 230 6.4 11.3 0.00 0.00 0.00 39 1019.5
20260502123055 0 329 0.0 0.0 0.00 0.00 0.00 84 1020.8
20260502123043 0 0 0.0 0.0 0.00 0.00 0.00 83 1026.1
20260502121539 -1 0 0.0 0.0 0.00 0.00 0.00 84 1026.1
20260502121536 -1 329 0.0 0.0 0.00 0.00 0.00 84 1020.8
20260502114540 -2 0 0.0 3.2 0.00 0.00 0.00 89 1026.0
20260502114531 -2 329 0.0 0.0 0.00 0.00 0.00 89 1020.7
20260502113044 -3 0 0.0 0.0 0.00 0.00 0.00 89 1026.0
20260502113032 -3 329 0.0 0.0 0.00 0.00 0.00 90 1020.8
20260502111542 -3 0 0.0 0.0 0.00 0.00 0.00 88 1026.0
20260502111529 -3 329 0.0 0.0 0.00 0.00 0.00 89 1020.7
20260502110044 -3 0 0.0 0.0 0.00 0.00 0.00 89 1026.0
20260502110026 -3 329 0.0 0.0 0.00 0.00 0.00 89 1020.7
20260502104543 -3 0 0.0 0.0 0.00 0.00 0.00 89 1026.0
20260502104534 -3 329 0.0 0.0 0.00 0.00 0.00 89 1020.7
20260502103125 -3 329 0.0 0.0 0.00 0.00 0.00 88 1020.8
20260502103038 -3 0 0.0 0.0 0.00 0.00 0.00 87 1026.0
20260502101546 -3 0 0.0 0.0 0.00 0.00 0.00 90 1026.0
20260502101525 -3 329 0.0 0.0 0.00 0.00 0.00 90 1020.8
20260502091518 -2 329 0.0 0.0 0.00 0.00 0.00 86 1021.0
20260502071505 -1 329 0.0 0.0 0.00 0.00 0.00 83 1021.2
20260502070100 -1 0 0.0 0.0 0.00 0.00 0.00 83 1026.5
20260502070003 -1 329 0.0 0.0 0.00 0.00 0.00 83 1021.3
20260502064545 -1 0 0.0 0.0 0.00 0.00 0.00 80 1026.6
20260502064501 -1 329 0.0 0.0 0.00 0.00 0.00 81 1021.4
20260502063102 -1 329 0.0 0.0 0.00 0.00 0.00 78 1021.5
20260502063037 -1 0 0.0 0.0 0.00 0.00 0.00 78 1026.7
20260502061600 -1 329 0.0 0.0 0.00 0.00 0.00 79 1021.5
20260502061544 -1 0 0.0 0.0 0.00 0.00 0.00 78 1026.8
20260502060058 -1 329 0.0 0.0 0.00 0.00 0.00 80 1021.4
20260502060045 -1 0 0.0 0.0 0.00 0.00 0.00 80 1026.7
20260502054558 0 0 0.0 0.0 0.00 0.00 0.00 78 1026.8
20260502053109 0 329 0.0 0.0 0.00 0.00 0.00 82 1021.4
20260502053042 0 0 0.0 0.0 0.00 0.00 0.00 80 1026.8